Location: American Canyon
(38.1966°N, 122.1514°W)
Time: 17:06:45
(UTC+00:00)

Cosmos 2180 Rocket - Pass Details

Date: 29 October 2020
Orbit: 953 x 1005 km, 82.9° (Epoch: 23 November)

Event Time Altitude Azimuth Distance (km) Brightness Sun altitude
Rises 12:11:05 0° 350° (N) 3,685 7.5 -28.2°
Reaches altitude 10° 12:13:37 10° 348° (NNW) 2,726 6.7 -27.7°
Enters shadow 12:16:58 34° 339° (NNW) 1,558 5.4 -27.1°
Exits shadow 12:19:17 65° 296° (WNW) 1,058 4.4 -26.6°
Maximum altitude 12:19:48 68° 267° (W) 1,036 4.3 -26.5°
Drops below altitude 10° 12:25:52 10° 185° (S) 2,679 6.7 -25.3°
Sets 12:28:21 0° 183° (S) 3,617 7.4 -24.8°
